Retour au catalogue

ARIANE 2 DEB

ActifGTO
NORAD 33581·DEBRIS·🇫🇷 France

Lancé Jan 27, 1989 depuis Guiana Space Centre

Loading…

TLE

PériméSource: Space-Track

Époque: Sep 13, 2026, 04:45 UTC

1 33581U 89006BZ  26256.19792421 -.00000131  00000-0  17998-3 0  9992
2 33581   8.5219  77.9479 7122705  66.8596 218.7014  2.31191881 44605

Suivez ARIANE 2 DEB en temps réel avec AllMySat

Download on the App Store